Date String (YYYY-MM-DD hh:mm:ss) UTC,Instrument flags,Ambient pressure (hPa),Sample flow (lpm),Bypass flow (lpm),Sample temperature (°C),Ambient temperature (°C),ASC tube jacket temperature (°C),LED temperature (°C),Box temperature (°C),Sample RH (%),Span deviation,Mass concentration (μg/m³),Mass concentration (μg/m³),Mass concentration (μg/m³)
DateTimeUTC,F1_M11,P_M11,Q1_M11,Q2_M11,T1_M11,T2_M11,T3_M11,T4_M11,T5_M11,U1_M11,ZSPAN_M11,X2_M11,X0_M11,X1_M11
2022-02-01 01:00:00,,0814.2,5.00,0.00,25.4,24.7,00.0,34.3,27.2,06.1,0000.0,0002.29,0005.56,0001.92
2022-02-01 01:01:00,,0814.6,5.00,0.00,25.4,24.6,00.0,34.3,27.2,06.3,0000.0,0002.68,0006.73,0002.27
2022-02-01 01:02:00,,0814.8,5.00,0.00,25.3,24.6,00.0,34.3,27.2,06.6,0000.0,0003.11,0007.34,0002.68
2022-02-01 01:03:00,,0814.3,5.00,0.00,25.3,24.6,00.0,34.3,27.1,06.7,0000.0,0003.43,0007.75,0003.12
2022-02-01 01:04:00,,0814.5,4.99,0.00,25.3,24.6,00.0,34.3,27.1,06.5,0000.0,0003.72,0008.12,0003.39
2022-02-01 01:05:00,,0814.8,5.02,0.00,25.3,24.5,00.0,34.3,27.0,06.7,0000.0,0004.01,0008.51,0003.63
2022-02-01 01:06:00,,0814.6,4.99,0.00,25.3,24.5,00.0,34.3,27.0,07.0,0000.0,0004.25,0008.77,0003.85
2022-02-01 01:07:00,,0814.3,5.00,0.00,25.2,24.4,00.0,34.3,26.9,07.1,0000.0,0004.51,0009.03,0004.08
2022-02-01 01:08:00,,0814.4,4.99,0.00,25.2,24.3,00.0,34.3,26.9,06.9,0000.0,0004.79,0009.49,0004.32
2022-02-01 01:09:00,,0814.2,5.01,0.00,25.1,24.2,00.0,34.3,26.9,06.7,0000.0,0005.02,0010.01,0004.53
2022-02-01 01:10:00,,0814.4,4.98,0.00,25.1,24.2,00.0,34.3,26.8,06.5,0000.0,0005.17,0010.22,0004.65
2022-02-01 01:11:00,,0814.8,5.01,0.00,25.1,24.1,00.0,34.2,26.8,06.8,0000.0,0005.34,0010.01,0004.78
2022-02-01 01:12:00,,0814.7,5.01,0.00,25.1,24.1,00.0,34.2,26.8,06.8,0000.0,0005.49,0009.94,0004.87
2022-02-01 01:13:00,,0814.4,4.99,0.00,25.1,24.1,00.0,34.2,26.8,05.9,0000.0,0005.45,0009.89,0004.83
2022-02-01 01:14:00,,0814.4,5.01,0.00,25.0,24.1,00.0,34.2,26.8,06.2,0000.0,0005.38,0009.86,0004.75
2022-02-01 01:15:00,,0814.5,4.99,0.00,25.0,24.2,00.0,34.2,26.8,06.1,0000.0,0005.30,0009.83,0004.68
2022-02-01 01:16:00,,0814.9,5.01,0.00,25.0,24.2,00.0,34.1,26.8,06.7,0000.0,0005.27,0010.38,0004.65
2022-02-01 01:17:00,,0814.7,5.00,0.00,25.0,24.2,00.0,34.1,26.8,06.9,0000.0,0005.27,0011.16,0004.61
2022-02-01 01:18:00,,0814.8,5.00,0.00,25.0,24.2,00.0,34.1,26.8,07.0,0000.0,0005.22,0011.18,0004.57
2022-02-01 01:19:00,,0815.0,5.00,0.00,25.0,24.2,00.0,34.1,26.8,06.8,0000.0,0005.15,0010.95,0004.51
2022-02-01 01:20:00,,0814.8,5.01,0.00,25.0,24.2,00.0,34.1,26.7,06.6,0000.0,0005.13,0010.84,0004.45
2022-02-01 01:21:00,,0814.8,4.98,0.00,25.0,24.1,00.0,34.1,26.7,06.4,0000.0,0005.11,0010.74,0004.42
2022-02-01 01:22:00,,0814.7,5.00,0.00,24.9,24.0,00.0,34.0,26.6,06.1,0000.0,0005.04,0010.26,0004.36
2022-02-01 01:23:00,,0814.8,5.02,0.00,24.8,23.9,00.0,34.0,26.5,05.8,0000.0,0004.93,0010.07,0004.29
2022-02-01 01:24:00,,0814.8,4.98,0.00,24.8,23.9,00.0,34.0,26.4,05.7,0000.0,0004.91,0010.01,0004.30
2022-02-01 01:25:00,,0814.9,5.00,0.00,24.8,23.8,00.0,34.0,26.4,05.9,0000.0,0004.88,0010.69,0004.30
2022-02-01 01:26:00,,0814.5,5.00,0.00,24.7,23.8,00.0,33.9,26.4,05.7,0000.0,0004.88,0010.69,0004.33
2022-02-01 01:27:00,,0814.8,5.01,0.00,24.7,23.8,00.0,33.9,26.4,05.8,0000.0,0004.79,0009.98,0004.27
2022-02-01 01:28:00,,0814.6,5.01,0.00,24.7,23.8,00.0,33.9,26.4,06.0,0000.0,0004.68,0009.06,0004.20
2022-02-01 01:29:00,,0815.0,5.00,0.00,24.7,23.9,00.0,33.9,26.5,06.1,0000.0,0004.61,0008.97,0004.14
2022-02-01 01:30:00,,0815.0,5.00,0.00,24.7,23.9,00.0,33.9,26.5,05.7,0000.0,0004.48,0008.70,0004.06
2022-02-01 01:31:00,,0814.7,4.99,0.00,24.7,23.9,00.0,33.9,26.5,06.0,0000.0,0004.37,0008.36,0003.99
2022-02-01 01:32:00,,0814.8,5.00,0.00,24.7,23.9,00.0,33.8,26.5,06.1,0000.0,0004.32,0008.88,0003.97
2022-02-01 01:33:00,,0814.9,5.00,0.00,24.7,23.9,00.0,33.8,26.5,05.5,0000.0,0004.20,0009.25,0003.90
2022-02-01 01:34:00,,0814.8,4.98,0.00,24.7,23.9,00.0,33.8,26.5,05.6,0000.0,0004.10,0009.10,0003.82
2022-02-01 01:35:00,,0814.6,5.02,0.00,24.7,24.0,00.0,33.8,26.5,05.6,0000.0,0004.03,0009.27,0003.76
2022-02-01 01:36:00,,0814.8,4.98,0.00,24.7,24.0,00.0,33.8,26.5,06.1,0000.0,0004.08,0008.87,0003.77
2022-02-01 01:37:00,,0814.7,5.02,0.00,24.7,24.0,00.0,33.8,26.5,06.3,0000.0,0004.11,0009.07,0003.78
2022-02-01 01:38:00,,0814.7,4.99,0.00,24.7,24.0,00.0,33.8,26.5,06.5,0000.0,0004.20,0010.14,0003.84
2022-02-01 01:39:00,,0814.6,5.01,0.00,24.7,23.9,00.0,33.8,26.5,06.4,0000.0,0004.21,0010.20,0003.86
2022-02-01 01:40:00,,0814.8,5.00,0.00,24.7,23.9,00.0,33.8,26.5,06.3,0000.0,0004.19,0010.16,0003.84
2022-02-01 01:41:00,,0814.9,4.99,0.00,24.7,23.9,00.0,33.8,26.4,06.2,0000.0,0004.20,0010.23,0003.84
2022-02-01 01:42:00,,0814.8,5.01,0.00,24.6,23.8,00.0,33.7,26.4,06.1,0000.0,0004.19,0010.69,0003.85
2022-02-01 01:43:00,,0814.7,5.01,0.00,24.6,23.9,00.0,33.7,26.3,06.0,0000.0,0004.15,0010.39,0003.83
2022-02-01 01:44:00,,0814.8,5.00,0.00,24.7,23.9,00.0,33.7,26.4,05.4,0000.0,0004.10,0009.50,0003.78
2022-02-01 01:45:00,,0814.9,5.00,0.00,24.7,23.9,00.0,33.7,26.5,05.4,0000.0,0004.06,0009.49,0003.74
2022-02-01 01:46:00,,0815.1,5.01,0.00,24.7,24.0,00.0,33.7,26.5,05.5,0000.0,0004.05,0009.68,0003.70
2022-02-01 01:47:00,,0815.0,5.00,0.00,24.7,24.0,00.0,33.7,26.5,05.1,0000.0,0003.96,0009.56,0003.63
2022-02-01 01:48:00,,0815.0,4.99,0.00,24.7,24.0,00.0,33.7,26.5,04.9,0000.0,0003.78,0009.45,0003.48
2022-02-01 01:49:00,,0815.0,4.99,0.00,24.7,24.0,00.0,33.7,26.6,04.5,0000.0,0003.58,0008.78,0003.30
2022-02-01 01:50:00,,0814.9,5.00,0.00,24.7,24.1,00.0,33.7,26.6,04.3,0000.0,0003.35,0008.19,0003.07
2022-02-01 01:51:00,,0815.0,5.00,0.00,24.7,24.1,00.0,33.7,26.6,04.5,0000.0,0003.12,0007.94,0002.73
2022-02-01 01:52:00,,0814.9,4.98,0.00,24.8,24.1,00.0,33.7,26.6,04.6,0000.0,0002.80,0007.66,0002.41
2022-02-01 01:53:00,,0814.9,5.01,0.00,24.8,24.1,00.0,33.7,26.6,04.5,0000.0,0002.45,0006.70,0002.09
2022-02-01 01:54:00,,0814.9,5.00,0.00,24.8,24.1,00.0,33.7,26.6,04.5,0000.0,0002.15,0005.78,0001.79
2022-02-01 01:55:00,,0815.1,4.99,0.00,24.8,24.2,00.0,33.7,26.6,04.8,0000.0,0001.93,0005.41,0001.57
2022-02-01 01:56:00,,0815.3,5.01,0.00,24.8,24.1,00.0,33.7,26.6,04.9,0000.0,0001.76,0005.21,0001.43
2022-02-01 01:57:00,,0815.3,5.00,0.00,24.8,24.2,00.0,33.7,26.6,04.9,0000.0,0001.59,0005.31,0001.30
2022-02-01 01:58:00,,0815.2,4.99,0.00,24.8,24.2,00.0,33.7,26.6,04.9,0000.0,0001.40,0005.98,0001.16
2022-02-01 01:59:00,,0815.0,5.01,0.00,24.8,24.2,00.0,33.8,26.6,04.8,0000.0,0001.29,0005.05,0001.07
